Tracking 19636 objects as of 25-May-2019
HD Live streaming from Space Station
objects crossing your sky now

SRMSAT

Track SRMSAT now!
10-day predictions
SRMSAT is classified as:


NORAD ID: 37841
Int'l Code: 2011-058D
Perigee: 855.9 km
Apogee: 872.8 km
Inclination: 20.0 °
Period: 102.1 minutes
Semi major axis: 7235 km
RCS: 0.1933 m2 (medium)
Launch date: October 12, 2011
Source: India (IND)
Launch site: SRIHARIKOTA (SRI)

Uplink (MHz): 145.900
Downlink (MHz): 437.500
Beacon (MHz): 437.425
Mode: CW
Call sign:
Status: Active

aabbcc
Your satellite tracking list
Your tracking list is empty




NASA's NSSDC Master Catalog

Two Line Element Set (TLE):
1 37841U 11058D   19144.47534628 +.00000305 +00000-0 +22240-4 0  9998
2 37841 019.9705 183.9450 0011628 280.0012 218.0649 14.10632308393033
Source of the keplerian elements: Caltech